Creek Data

    Home     View Charts     View Raw Data     Messages

ID Distance Battery Voltage Battery Current Internal Temp Internal Humidity External Temp Solar Input rssi snr Time Stamp Record
64702 14.9 3.72 -5 48 52 51 0 -76 8 01/28/2026 07:15 PM 47463
64701 14.9 3.71 -5 48 52 50 0 -76 9 01/28/2026 07:00 PM 47462
64700 14.9 3.72 -5 49 53 51 0 -76 8 01/28/2026 06:45 PM 47461
64699 14.9 3.81 -5 49 53 51 0 -76 8 01/28/2026 06:30 PM 47460
64698 14.9 3.82 -5 50 53 51 0 -76 8 01/28/2026 06:15 PM 47459
64697 14.9 3.72 -5 51 54 52 0 -74 9 01/28/2026 06:00 PM 47458
64696 14.9 3.72 -5 52 54 52 0.3 -75 8 01/28/2026 05:45 PM 47457
64695 14.9 3.82 -6 54 54 53 1.5 -75 8 01/28/2026 05:30 PM 47456
64694 14.9 3.83 0 57 53 55 4.5 -74 8 01/28/2026 05:15 PM 47455
64693 14.9 3.89 5 59 52 56 4.5 -74 8 01/28/2026 05:00 PM 47454
64692 14.9 3.90 0 61 51 57 4.5 -74 8 01/28/2026 04:45 PM 47453
64691 14.9 3.80 0 62 51 58 5.1 -74 7 01/28/2026 04:30 PM 47452
64690 14.9 3.86 5 63 51 59 5.1 -74 8 01/28/2026 04:15 PM 47451
64689 14.9 3.93 5 64 50 59 5.1 -75 8 01/28/2026 04:00 PM 47450
64688 14.9 3.80 5 66 48 59 5.1 -74 8 01/28/2026 03:45 PM 47449
64687 14.9 3.80 0 66 48 59 5.1 -74 8 01/28/2026 03:30 PM 47448
64686 15.0 3.80 0 64 49 59 5.1 -75 8 01/28/2026 03:15 PM 47447
64685 15.0 4.06 5 63 50 58 5.1 -75 8 01/28/2026 03:00 PM 47446
64684 15.0 3.80 0 65 49 58 5.1 -76 8 01/28/2026 02:45 PM 47445
64683 15.0 3.80 0 67 47 59 5.1 -75 8 01/28/2026 02:30 PM 47444
64682 15.0 3.80 5 65 48 58 5.1 -74 7 01/28/2026 02:15 PM 47443
64681 15.0 3.80 5 64 49 58 5.1 -76 8 01/28/2026 02:00 PM 47442
64680 15.0 3.80 0 65 48 59 5.1 -74 7 01/28/2026 01:45 PM 47441
64679 15.0 3.80 5 66 46 58 5.1 -74 7 01/28/2026 01:30 PM 47440
64678 15.0 3.80 6 66 46 59 5.1 -72 8 01/28/2026 01:15 PM 47439